Regional Weather Roundup
Issued by NWS Sterling, VA

Home | Current Version | Previous Version | Graphics & Text | Print | Product List | Glossary On
Versions: 1 2 3 4 5 6 7 8 9 10 11 12 13 14 15 16 17 18 19 20 21 22 23 24 25 26 27 28 29 30 31 32 33 34 35 36 37 38 39 40 41 42 43 44 45 46 47 48 49 50
000
ASUS41 KLWX 180010
RWRLWX

REGIONAL WEATHER ROUNDUP
NATIONAL WEATHER SERVICE BALTIMORE MD/WASHINGTON DC
800 PM EDT FRI APR 17 2015

Note: "FAIR" indicates few or no clouds below 12,000 feet
with no significant weather and/or obstructions to visibility.
 TC=TEMPERATURE CELSIUS

 * =Non NWS site. Station does not report precipitation (e.g. rain,
    snow, etc.), thunder, or fog.

DCZ001-MDZ009-015-VAZ040>042-051-053>054-180100-
WASHINGTON METRO

CITY           SKY/WX    TMP DP  RH WIND       PRES   REMARKS
WASHINGTON NAT MOCLDY    73  61  65 SW5       29.94S
DULLES         MOCLDY    68  59  73 CALM      29.95S
ANDREWS AFB    CLOUDY    70  60  69 S1        29.94S
FT BELVOIR     CLOUDY    73  59  60 W1        29.94S
QUANTICO       MOCLDY    73  58  59 NW6       29.95R
COLLEGE PARK*  CLOUDY    75  55  50 CALM      29.94R
LEESBURG*      CLOUDY    70  61  73 W3        29.96S
MANASSAS*      CLOUDY    72  63  73 CALM      29.95S
GAITHERSBURG*  MOCLDY    72  54  53 CALM      29.99S

$$

MDZ006>007-011-014-180100-
BALTIMORE METRO

CITY           SKY/WX    TMP DP  RH WIND       PRES   REMARKS
BWI AIRPORT    MOCLDY    72  57  59 SE6       29.94R
MD SCIENCE CTR   N/A     70  57  63 MISG      29.94R
ANNAPOLIS      PTCLDY    66  57  72 S6        29.94R
FORT MEADE*    CLOUDY    70  55  60 S3        29.96R

$$

MDZ012-015-019>023-180100-
MARYLAND EASTERN SHORE

CITY           SKY/WX    TMP DP  RH WIND       PRES   REMARKS
OCEAN CITY     PTCLDY    58  55  90 S5        29.97S
SALISBURY      PTCLDY    66  60  81 S5        29.96R
BAY BRIDGE AP*   N/A     63  59  88 CALM      29.95R
CAMBRIDGE*     PTCLDY    70  61  73 S6        29.95S
EASTON*        CLEAR     72  63  73 S6        29.99R

$$

MDZ017>025-180100-
SOUTHERN MARYLAND

CITY           SKY/WX    TMP DP  RH WIND       PRES   REMARKS
PATUXENT RIVER MOCLDY    61  57  87 SE7       29.94S
ST INIGOES     PTCLDY    67  59  75 SE7       29.94S
LEONARDTOWN*   PTCLDY    70  59  68 SE3       29.96S

$$

MDZ003>005-180100-
NORTH CENTRAL MARYLAND

CITY           SKY/WX    TMP DP  RH WIND       PRES   REMARKS
FREDERICK*     CLEAR     72  50  46 N6        29.98R
HAGERSTOWN APT PTCLDY    69  52  54 NW6       29.97R
WESTMINSTER*   PTCLDY    72  55  56 NW3       29.97R

$$

MDZ501>502-180100-
WESTERN MARYLAND

CITY           SKY/WX    TMP DP  RH WIND       PRES   REMARKS
OAKLAND*       PTCLDY    57 N/A N/A W6        30.05S
CUMBERLAND*    MOCLDY    72  52  49 NW7       30.02S

$$

VAZ025>031-180100-
SHENANDOAH VALLEY

CITY           SKY/WX    TMP DP  RH WIND       PRES   REMARKS
WINCHESTER*    MOCLDY    70  48  46 CALM      29.97S
FRONT ROYAL*   NOT AVBL
LURAY*         NOT AVBL
NEW MARKET*    FAIR      70  54  55 CALM      29.96R
STAUNTON*      MOCLDY    66  61  82 CALM      30.00S
WAYNESBORO*    NOT AVBL

$$

WVZ021-048>050-054>055-180100-
EASTERN WEST VIRGINIA PANHANDLE

CITY           SKY/WX    TMP DP  RH WIND       PRES   REMARKS
MARTINSBURG    NOT AVBL
PETERSBURG*    PTCLDY    64  51  62 NW6       30.01S

$$

VAZ036>039-050-180100-
CENTRAL FOOTHILLS

CITY           SKY/WX    TMP DP  RH WIND       PRES   REMARKS
CHARLOTTESVILL MOCLDY    66  63  90 CALM      29.96R
CULPEPER*      PTCLDY    70  64  83 CALM      29.96R
ORANGE*        MOCLDY    66  63  88 CALM      29.97S
GORDONSVILLE*  FAIR      65  64  96 CALM      29.95S
WARRENTON*     FAIR      67  64  89 CALM      29.95S

$$

VAZ055>057-180100-
NORTH AND CENTRAL PIEDMONT

CITY           SKY/WX    TMP DP  RH WIND       PRES   REMARKS
FREDERICKSBRG* MOCLDY    67  67 100 CALM      29.94S
STAFFORD*      PTCLDY    66  61  85 CALM      29.99S

$$

NCZ024-NYZ072-PAZ021-071-VAZ022-071-180100-
OTHER REGIONAL OBSERVATIONS

CITY           SKY/WX    TMP DP  RH WIND       PRES   REMARKS
NEW YORK CITY  CLOUDY    69  52  54 W5        29.94R
PHILADELPHIA   MOCLDY    71  58  63 SW6       29.94R
PITTSBURGH     MOCLDY    67  47  48 NW7       30.01S
ROANOKE        MOCLDY    73  53  49 E6        29.99S
RICHMOND       CLOUDY    74  60  61 S9        29.96R
RALEIGH        CLOUDY    71  62  73 W3        29.99S

$$

ANZ530>537-180100-
MARINE OBSERVATIONS

STATION/POSITION TIME  TEMP    WIND        PRES
                       AIR SEA DIR/SP/G
                 (UTC) (F)     (DEG/KT/KT) (MB)
THOMAS PT LIGHT  0000   59 54  190/ 10/ 11 1014.6R
BALT KEY BRIDGE  2300   70     130/  8/  9 1013.3S
COVE POINT       2300   59     190/ 13/ 14 1013.9F
LEWISETTA        2300   70 60              1013.7F
SOLOMONS ISLAND  2300      57                N/A
PINEY POINT      2300          100/  8/  8   N/A

$$




USA.gov is the U.S. government's official web portal to all federal, state and local government web resources and services.